Redmond, OR

1:11 AM PDT on October 18, 2017 (GMT -0700)
Roberts Field Airport

Weather History for KRDM - August, 2014

Change the Weather History Date:

Saturday, August 16, 2014

  Actual Average Record
Temperature  
Mean Temperature 67 °F 65 °F  
Max Temperature 86 °F 85 °F 106 °F (2008)
Min Temperature 47 °F 45 °F 35 °F (1960)
Degree Days  
Heating Degree Days 0 2  
Month to date heating degree days 4 29  
Since 1 June heating degree days 258 315  
Since 1 July heating degree days 35 98  
Cooling Degree Days 2 3  
Month to date cooling degree days 79 54  
Year to date cooling degree days 273 180  
Since 1 June cooling degree days 273 175  
Growing Degree Days 17 (Base 50)    
Moisture  
Dew Point 49 °F    
Average Humidity 57    
Maximum Humidity 89    
Minimum Humidity 25    
Precipitation  
Precipitation 0.00 in 0.02 in 0.59 in (1968)
Month to date precipitation 0.90 0.26  
Year to date precipitation 4.94 5.49  
Sea Level Pressure  
Sea Level Pressure 30.04 in    
Wind  
Wind Speed 5 mph (North)    
Max Wind Speed 15 mph    
Max Gust Speed 19 mph    
Visibility 10 miles    
Events      
T = Trace of Precipitation, MM = Missing Value Source: NWS Daily Summary

Daily Weather History Graph

Daily Weather History Graph

Search for Another Location

Airport or City:

Trip Planner

Search our weather history database for the weather conditions in past years. The results will help you decide how hot, cold, wet, or windy it might be!

Date:

Astronomy

Aug. 16, 2014 Rise Set
Actual Time 6:09 AM PDT 8:07 PM PDT
Civil Twilight 5:37 AM PDT 8:38 PM PDT
Nautical Twilight 4:59 AM PDT 9:17 PM PDT
Astronomical Twilight 4:17 AM PDT 9:58 PM PDT
Moon 11:38 PM PDT (8/16) 1:17 PM PDT (8/16)
Length of Visible Light 15h 01m
Length of Day
13h 58m
Waning Gibbous, 58% of the Moon is Illuminated
Aug 16
Waning Gibbous
Aug 17
Last Quarter
Aug 25
New
Sep 2
First Quarter
Sep 8
Full

Hourly Weather History & Observations

Time (PDT) Temp. Dew Point Humidity Pressure Visibility Wind Dir Wind Speed Gust Speed Precip Events Conditions
12:56 AM 57.9 °F 52.0 °F 81% 30.05 in 10.0 mi Calm Calm - N/A   Clear
1:56 AM 55.0 °F 51.1 °F 86% 30.05 in 10.0 mi Calm Calm - N/A   Clear
2:56 AM 53.1 °F 50.0 °F 89% 30.06 in 10.0 mi SSE 6.9 mph - N/A   Clear
3:56 AM 53.1 °F 48.9 °F 86% 30.06 in 10.0 mi SSE 3.5 mph - N/A   Clear
4:56 AM 51.1 °F 48.0 °F 89% 30.06 in 10.0 mi SSE 3.5 mph - N/A   Clear
5:56 AM 50.0 °F 46.9 °F 89% 30.08 in 10.0 mi East 3.5 mph - N/A   Clear
6:56 AM 51.1 °F 48.0 °F 89% 30.09 in 10.0 mi ESE 3.5 mph - N/A   Clear
7:56 AM 59.0 °F 51.1 °F 75% 30.09 in 10.0 mi SE 3.5 mph - N/A   Clear
8:56 AM 64.9 °F 52.0 °F 63% 30.09 in 10.0 mi Calm Calm - 0.00 in   Clear
9:56 AM 70.0 °F 52.0 °F 53% 30.08 in 10.0 mi Calm Calm - N/A   Clear
10:56 AM 73.9 °F 52.0 °F 46% 30.07 in 10.0 mi WNW 4.6 mph - N/A   Clear
11:56 AM 78.1 °F 48.0 °F 35% 30.06 in 10.0 mi Variable 4.6 mph - N/A   Clear
12:56 PM 81.0 °F 45.0 °F 28% 30.04 in 10.0 mi Variable 6.9 mph - N/A   Clear
1:56 PM 81.0 °F 44.1 °F 27% 30.04 in 10.0 mi WNW 5.8 mph - N/A   Clear
2:56 PM 82.0 °F 45.0 °F 27% 30.02 in 10.0 mi Calm Calm - N/A   Clear
3:56 PM 84.9 °F 46.0 °F 26% 30.01 in 10.0 mi NNE 9.2 mph - N/A   Clear
4:56 PM 84.9 °F 45.0 °F 25% 30.00 in 10.0 mi NNW 11.5 mph - N/A   Clear
5:56 PM 84.9 °F 44.1 °F 24% 29.99 in 10.0 mi NNW 13.8 mph 19.6 mph N/A   Clear
6:56 PM 82.0 °F 46.0 °F 28% 29.99 in 10.0 mi NNW 10.4 mph - 0.00 in   Clear
7:56 PM 78.1 °F 48.0 °F 35% 30.00 in 10.0 mi NNW 5.8 mph - N/A   Clear
8:56 PM 75.0 °F 48.9 °F 40% 30.02 in 10.0 mi NNW 10.4 mph - N/A   Clear
9:56 PM 72.0 °F 53.1 °F 51% 30.03 in 10.0 mi North 6.9 mph - N/A   Clear
10:56 PM 69.1 °F 53.1 °F 57% 30.03 in 10.0 mi NW 4.6 mph - N/A   Clear
11:56 PM 63.0 °F 53.1 °F 70% 30.04 in 10.0 mi Calm Calm - N/A   Clear